Weather History for Wooster, OH

Change the Weather History Date:

Friday, September 13, 2013

  Actual Average Record
Temperature  
Mean Temperature 55 °F -  
Max Temperature 62 °F 73 °F 87 °F (1998)
Min Temperature 48 °F 49 °F 43 °F (2002)
Degree Days  
Heating Degree Days 10    
Growing Degree Days 5 (Base 50)    
Moisture  
Dew Point 51 °F    
Average Humidity 81    
Maximum Humidity 100    
Minimum Humidity 63    
Precipitation  
Precipitation 0.30 in - - ()
Sea Level Pressure  
Sea Level Pressure 29.99 in    
Wind  
Wind Speed 10 mph (NNW)    
Max Wind Speed 20 mph    
Max Gust Speed 26 mph    
Visibility 9 miles    
Events Rain    
Averages and records for this station are not official NWS values.
T = Trace of Precipitation, MM = Missing Value Source: NWS Daily Summary

Daily Weather History Graph

Daily Weather History Graph

Search for Another Location

Airport:

Trip Planner

Search our weather history database for the weather conditions in past years. The results will help you decide how hot, cold, wet, or windy it might be!

Date:

Astronomy

Sep. 13, 2013 Rise Set
Actual Time 7:06 AM EDT 7:39 PM EDT
Civil Twilight 6:38 AM EDT 8:07 PM EDT
Nautical Twilight 6:06 AM EDT 8:39 PM EDT
Astronomical Twilight 5:32 AM EDT 9:13 PM EDT
Moon 3:29 PM EDT (9/13) 12:32 AM EDT (9/13)
Length of Visible Light 13h 28m
Length of Day
12h 33m
First Quarter, 61% of the Moon is Illuminated
Sep 13
First Quarter
Sep 19
Full
Sep 26
Last Quarter
Oct 4
New
Oct 11
First Quarter

Hourly Weather History & Observations

Time (EDT) Temp. Dew Point Humidity Pressure Visibility Wind Dir Wind Speed Gust Speed Precip Events Conditions
12:56 AM 57.9 °F 57.0 °F 97% 29.90 in 10.0 mi NNE 3.5 mph - 0.08 in   Mostly Cloudy
1:56 AM 55.0 °F 54.0 °F 96% 29.90 in 7.0 mi NW 4.6 mph - 0.05 in   Scattered Clouds
2:27 AM 57.2 °F 57.2 °F 100% 29.91 in 3.0 mi NW 9.2 mph - 0.02 in Rain Heavy Rain
2:35 AM 57.2 °F 57.2 °F 100% 29.92 in 2.5 mi NNW 10.4 mph 18.4 mph 0.03 in Rain Heavy Rain
2:42 AM 57.2 °F 57.2 °F 100% 29.91 in 6.0 mi North 10.4 mph - 0.04 in Rain Light Rain
2:56 AM 57.9 °F 55.9 °F 93% 29.90 in 9.0 mi NNW 6.9 mph - 0.05 in Rain Light Rain
3:47 AM 57.2 °F 53.6 °F 88% 29.91 in 10.0 mi NNW 11.5 mph - 0.04 in   Overcast
3:56 AM 57.0 °F 54.0 °F 89% 29.91 in 10.0 mi NNW 10.4 mph - 0.04 in   Mostly Cloudy
4:56 AM 54.0 °F 52.0 °F 93% 29.92 in 10.0 mi NW 9.2 mph - 0.03 in   Clear
5:56 AM 53.1 °F 51.1 °F 93% 29.92 in 10.0 mi NW 8.1 mph - 0.01 in   Clear
6:56 AM 52.0 °F 50.0 °F 93% 29.94 in 10.0 mi NW 8.1 mph - 0.01 in   Clear
7:56 AM 52.0 °F 48.9 °F 89% 29.96 in 10.0 mi NW 9.2 mph - N/A   Clear
8:56 AM 57.0 °F 52.0 °F 83% 29.96 in 10.0 mi NNW 12.7 mph 18.4 mph N/A   Clear
9:56 AM 59.0 °F 52.0 °F 78% 29.96 in 10.0 mi NW 13.8 mph 21.9 mph N/A   Clear
10:46 AM 60.8 °F 51.8 °F 72% 29.98 in 10.0 mi NW 15.0 mph 20.7 mph N/A   Overcast
10:56 AM 60.1 °F 52.0 °F 75% 29.98 in 10.0 mi NNW 16.1 mph 19.6 mph N/A   Overcast
11:19 AM 59.0 °F 51.8 °F 77% 29.99 in 10.0 mi NNW 12.7 mph - 0.00 in   Overcast
11:56 AM 60.1 °F 52.0 °F 75% 29.99 in 10.0 mi North 11.5 mph - 0.00 in   Mostly Cloudy
12:56 PM 59.0 °F 52.0 °F 78% 30.00 in 10.0 mi North 17.3 mph 24.2 mph 0.00 in   Overcast
1:05 PM 59.0 °F 51.8 °F 77% 30.00 in 10.0 mi North 15.0 mph 23.0 mph N/A   Overcast
1:14 PM 60.8 °F 51.8 °F 72% 30.00 in 10.0 mi North 16.1 mph 21.9 mph N/A   Overcast
1:35 PM 59.0 °F 50.0 °F 72% 30.01 in 10.0 mi North 13.8 mph 23.0 mph N/A   Overcast
1:56 PM 60.1 °F 50.0 °F 69% 30.01 in 10.0 mi NNE 15.0 mph 23.0 mph N/A   Mostly Cloudy
2:56 PM 57.9 °F 51.1 °F 78% 30.01 in 10.0 mi North 10.4 mph - 0.02 in   Overcast
3:56 PM 57.0 °F 48.9 °F 74% 30.01 in 10.0 mi North 16.1 mph 20.7 mph 0.01 in   Mostly Cloudy
4:28 PM 59.0 °F 46.4 °F 63% 30.01 in 10.0 mi North 19.6 mph 26.5 mph N/A   Mostly Cloudy
4:39 PM 57.2 °F 46.4 °F 67% 30.01 in 10.0 mi North 16.1 mph 24.2 mph N/A   Mostly Cloudy
4:56 PM 57.9 °F 46.9 °F 67% 30.02 in 10.0 mi North 13.8 mph 21.9 mph N/A   Mostly Cloudy
5:56 PM 57.0 °F 46.0 °F 67% 30.03 in 10.0 mi North 9.2 mph - N/A   Scattered Clouds
6:56 PM 54.0 °F 46.0 °F 75% 30.06 in 10.0 mi North 12.7 mph 23.0 mph N/A   Overcast
7:04 PM 53.6 °F 46.4 °F 77% 30.06 in 10.0 mi North 9.2 mph - N/A   Overcast
7:56 PM 54.0 °F 46.9 °F 77% 30.07 in 10.0 mi North 5.8 mph - N/A   Overcast
8:56 PM 53.1 °F 46.9 °F 80% 30.08 in 10.0 mi North 5.8 mph - N/A   Overcast
9:56 PM 52.0 °F 45.0 °F 77% 30.09 in 10.0 mi North 6.9 mph - N/A   Mostly Cloudy
10:56 PM 50.0 °F 44.1 °F 80% 30.10 in 10.0 mi NNW 6.9 mph - N/A   Scattered Clouds
11:56 PM 48.0 °F 44.1 °F 86% 30.10 in 10.0 mi NNW 5.8 mph - N/A   Overcast